Other Public Products
Issued by NWS Charleston, SC

Current Version | Previous Version | Graphics & Text | Print | Product List | Glossary On
Versions: 1 2 3 4 5 6 7 8 9 10 11 12 13 14 15 16 17 18 19 20 21 22 23 24 25 26 27 28 29 30 31 32 33 34 35 36 37 38 39 40 41 42 43 44 45 46 47 48 49 50
000
FPUS82 KCHS 192027
OPUCHS

TEST...KCHS/KSAV Gateway Observations...TEST
National Weather Service Charleston SC
400 PM EDT THU OCT 19 2017

NOTE: "fair" indicates few or no clouds below 12,000 feet with no
significant weather and/or obstructions to visibility.

SCZ050-WAZ558-NCZ071-TXZ119-213-PAZ071-DCZ001-FLZ074-172-MI076-
NYZ176-178-MAZ016-IL014-TNZ027-NJZ106-GAZ044-MD014-192100-

...Gateway Observations for Charleston International...

CITY           SKY/WX    TMP DP  RH WIND       PRES   REMARKS
Chas Airport   FAIR      78  58  49 NE9       30.18F
Seattle        LGT RAIN  53  51  93 S10       29.54F
Charlotte      FAIR      74  42  31 VRB3      30.25F
Dallas DFW     FAIR      81  51  35 SE12      30.08F
Dallas Love    FAIR      80  54  40 E10       30.09F
Philladelphia  FAIR      71  44  37 SW14      30.14F
Wash National  FAIR      71  51  49 S10       30.17F
Baltimore      FAIR      72  46  39 S5        30.15F
Miami          PTSUNNY   86  73  65 NE10      29.97S HX  93
Detroit        PTSUNNY   71  40  32 W14       30.10S
Newark         FAIR      73  39  29 SW13      30.11F
Laguardia      FAIR      72  39  30 S14G21    30.10F
J F K          FAIR      67  55  65 S15       30.14F
Boston Logan   FAIR      73  43  33 SW17      30.03F
Ft. Lauderdale FAIR      85  76  74 NE10      29.97S HX  94
Chicago O`Hare PTSUNNY   68  28  22 SW3       30.16F
Chicago Midway PTSUNNY   67  25  20 E9        30.17S
Houston Bush   PTSUNNY   83  64  52 VRB7      30.08F
Houston Hobby  PTSUNNY   83  64  52 SE8       30.08F
Nashville      FAIR      76  45  33 CALM      30.25F
Atlanta        FAIR      75  40  28 VRB5      30.24F

$$

GAZ044-118-TXZ119-213-NCZ071-DCZ001-MDZ014-506-PAZ021-071-NJZ106-
NYZ176-178-MAZ106-OHZ011-021-055-MIZ076-KYZ091-ILZ014-INZ047-
MNZ060-ONZ431-192100-

...Gateway Observations for Savannah International...

CITY           SKY/WX    TMP DP  RH WIND       PRES   REMARKS
Savannah Arpt  FAIR      81  58  45 E8        30.18F
Atlanta        FAIR      75  40  28 VRB5      30.24F
Charlotte      FAIR      74  42  31 VRB3      30.25F
Dallas DFW     FAIR      81  51  35 SE12      30.08F
Houston Bush   PTSUNNY   83  64  52 VRB7      30.08F
Wash National  FAIR      71  51  49 S10       30.17F
Wash Dulles    FAIR      73  44  35 SW6       30.17F
Baltimore      FAIR      72  46  39 S5        30.15F
Philadelphia   FAIR      71  44  37 SW14      30.14F
Newark         FAIR      73  39  29 SW13      30.11F
Laguardia      FAIR      72  39  30 S14G21    30.10F
J F K          FAIR      67  55  65 S15       30.14F
Boston         FAIR      73  43  33 SW17      30.03F
Pittsburg      PTSUNNY   69  46  43 SW8G20    30.16F
Akron          FAIR      72  49  44 SW15      30.14F
Cleveland      FAIR      74  50  42 SW18      30.13F
Cincinnati     FAIR      72  52  49 SW10G17   30.20S
Columbus       FAIR      73  49  43 SW10G20   30.18R
Detroit        PTSUNNY   71  40  32 W14       30.10S
Chicago O`Hare PTSUNNY   68  28  22 SW3       30.16F
Minneapolis    FAIR      73  34  23 S13G21    29.99F
Indianapolis   FAIR      74  51  44 SW8       30.18S
Toronto Canada MOSUNNY   68  43  40 W20       29.98R

$$




USA.gov is the U.S. government's official web portal to all federal, state and local government web resources and services.